Back to catalog

STARLINK-34669

AliveCommunicationsVLEO
NORAD 64811·PAYLOAD·🇺🇸 United States

Launched Jul 16, 2025 from Vandenberg Space Force Base

Loading…

Next Passes (next 24 hours)

TLE

FreshSource: CelesTrak SupGP

Epoch: Sep 15, 2026, 03:22 UTC

1 64811C 25150X   26258.14076389  .00050014  00000+0  41920-2 0  2589
2 64811  70.0030  16.6366 0003129 267.8263 257.4631 14.98299730    10

Track STARLINK-34669 in real time with AllMySat

Download on the App Store